[[{"header":{"parameterUnit":"m.s-1","parameterCategory":1,"la1":30.2991,"la2":30.254,"lo1":-89.0895,"lo2":-89.0444,"dy":0.0017,"dx":0.0017,"nx":28,"ny":28,"refTime":"2025-04-25T03:00:00:Z","depth":0,"parameterNumber":2,"parameterNumberName":"U-component_of_WINDS"},"data":[0,0,0,0,0,0,0,0,0,0,0,0,0,0,0,0,0,0,0,0,0,0,0,0,0,0,0,0,0,0,0,0,0,0,0,0,0,0,0,0,0,0,0,0,0,0,0,0,0,0,0,0,0,0,0,0,0,0,-0.6744,-0.6744,0,-0.6721,-0.6721,-0.6721,-0.6697,-0.6697,-0.6696,-0.6696,-0.6673,-0.6672,-0.6672,0,0,0,0,0,0,0,0,0,0,0,0,0,-0.6769,-0.6768,-0.6744,-0.6744,-0.6744,-0.6721,-0.6721,-0.6721,-0.6697,-0.6697,-0.6696,-0.6696,-0.6673,-0.6672,-0.6672,0,0,0,0,0,0,0,0,0,0,0,0,0,-0.6753,-0.6768,-0.6744,-0.6729,-0.6728,-0.6721,-0.6721,-0.672,-0.6697,-0.6697,-0.6696,-0.6696,-0.6673,-0.6672,-0.6672,-0.6679,0,0,-0.667,-0.667,0,0,0,0,0,0,0,0,-0.6754,-0.6752,-0.6732,-0.673,-0.6728,-0.6711,-0.6721,-0.6706,-0.6697,-0.6709,-0.6696,-0.6695,-0.6686,-0.6684,-0.6681,-0.6677,-0.6676,-0.667,-0.667,-0.667,-0.667,0,0,0,0,0,0,0,-0.6755,-0.6753,-0.6735,-0.6731,-0.6729,-0.6724,-0.6721,-0.6718,-0.67,-0.6708,-0.6706,-0.6703,-0.6685,-0.6682,-0.668,-0.6676,-0.667,-0.667,-0.667,-0.6669,-0.6677,-0.6678,0,0,0,0,0,0,-0.6758,-0.6754,-0.6736,-0.6734,-0.674,-0.6724,-0.6721,-0.6717,-0.67,-0.6697,-0.6704,-0.6702,-0.6683,-0.6681,-0.6679,-0.6686,-0.667,-0.6669,-0.6669,-0.6677,-0.6677,-0.6678,0,0,0,0,0,0,-0.6759,-0.6757,-0.6737,-0.6744,-0.6741,-0.6724,-0.672,-0.6717,-0.6714,-0.6697,-0.6694,-0.6704,-0.6682,-0.668,-0.6679,-0.6685,-0.6669,-0.6669,-0.6676,-0.6677,-0.6678,-0.67,0,0,0,0,0,0,-0.676,-0.6757,-0.676,-0.6744,-0.6741,-0.6737,-0.6721,-0.6717,-0.6713,-0.6711,-0.6696,-0.6694,-0.6682,-0.668,-0.6679,-0.6684,-0.6668,-0.6676,-0.6677,-0.6677,-0.6699,-0.6702,-0.6704,0,0,0,0,0,-0.6761,-0.6767,-0.676,-0.6758,-0.6743,-0.6737,-0.6735,-0.6721,-0.6714,-0.6716,-0.6705,-0.6694,-0.6685,-0.668,-0.6678,-0.6684,-0.6675,-0.6676,-0.6677,-0.6698,-0.6701,-0.6704,0,0,0,0,0,0,-0.6784,-0.6764,-0.6756,-0.6757,-0.6749,-0.6733,-0.6735,-0.6725,-0.6719,-0.6717,-0.67,-0.6697,-0.6698,-0.6691,-0.6686,-0.669,-0.6678,-0.6679,-0.6694,-0.6697,-0.67,-0.6702,-0.6668,0,0,0,0,0,-0.6789,-0.6785,-0.6769,-0.6771,-0.6768,-0.6752,-0.6749,-0.6739,-0.673,-0.6726,-0.6716,-0.6707,-0.6702,-0.67,-0.6694,-0.6698,-0.6694,-0.6701,-0.6703,-0.6706,-0.6706,-0.6708,-0.6711,-0.6682,-0.6682,-0.6682,0,0,-0.6799,-0.6788,-0.6787,-0.6776,-0.6768,-0.6765,-0.6749,-0.6747,-0.6745,-0.6726,-0.6724,-0.6716,-0.6706,-0.6707,-0.6707,-0.6701,-0.6714,-0.6707,-0.6709,-0.6709,-0.671,-0.6712,-0.6715,-0.6682,-0.6682,-0.6682,0,0,-0.6817,-0.6808,-0.681,-0.6802,-0.6791,-0.6781,-0.6781,-0.6767,-0.6761,-0.6759,-0.6745,-0.6742,-0.6734,-0.6727,-0.6722,-0.6738,-0.6728,-0.6737,-0.6751,-0.6752,-0.6755,-0.6757,-0.6762,-0.6765,-0.6738,-0.6738,-0.6738,0,-0.6831,-0.6826,-0.6812,-0.681,-0.6806,-0.6788,-0.679,-0.6783,-0.6771,-0.6768,-0.6762,-0.6752,-0.6743,-0.6743,-0.6747,-0.6744,-0.6744,-0.6739,-0.6756,-0.6757,-0.6759,-0.6764,-0.6767,-0.6739,-0.6739,-0.6739,-0.6739,0,-0.6845,-0.6842,-0.6844,-0.6833,-0.6828,-0.6828,-0.6814,-0.6811,-0.6802,-0.6793,-0.6791,-0.6781,-0.6773,-0.6773,-0.6763,-0.6771,-0.6768,-0.6759,-0.6747,-0.6763,-0.6768,-0.677,-0.6741,-0.6741,-0.674,-0.674,0,0,-0.6876,-0.6856,-0.6858,-0.6852,-0.6838,-0.6836,-0.6835,-0.6828,-0.6826,-0.6818,-0.6818,-0.6812,-0.6803,-0.6798,-0.6788,-0.679,-0.6803,-0.678,-0.678,-0.6785,-0.6811,-0.6818,-0.6821,-0.6796,-0.6797,-0.6797,-0.6812,0,-0.6892,-0.6889,-0.6876,-0.6878,-0.6875,-0.6859,-0.6858,-0.685,-0.6841,-0.6838,-0.6828,-0.6824,-0.6814,-0.6811,-0.6811,-0.6802,-0.6808,-0.68,-0.6796,-0.6796,-0.6799,-0.6823,-0.6831,-0.6846,-0.6814,-0.6814,-0.6815,0,-0.6909,-0.6902,-0.6904,-0.689,-0.6888,-0.6888,-0.6881,-0.6877,-0.6868,-0.6862,-0.6856,-0.6845,-0.6844,-0.6833,-0.6832,-0.6826,-0.6824,-0.6819,-0.6819,-0.6818,-0.6806,-0.6823,-0.685,-0.6853,-0.6817,-0.6817,-0.6817,0,-0.6932,-0.6923,-0.6923,-0.6919,-0.6903,-0.6903,-0.6897,-0.6887,-0.6883,-0.6877,-0.6874,-0.6868,-0.6864,-0.686,-0.6847,-0.684,-0.6847,-0.6835,-0.6842,-0.6842,-0.6844,-0.6844,-0.6871,-0.6842,-0.6842,-0.6842,-0.6842,0,-0.6951,-0.6952,-0.6933,-0.6933,-0.6934,-0.6919,-0.6921,-0.6913,-0.6904,-0.6902,-0.6888,-0.6887,-0.6871,-0.6868,-0.6858,-0.6858,-0.6857,-0.6852,-0.6849,-0.6853,-0.6854,-0.6851,-0.685,-0.6843,-0.6843,-0.6843,-0.6843,0,-0.6976,-0.6963,-0.6962,-0.6947,-0.6944,-0.6945,-0.6933,-0.6932,-0.6923,-0.6921,-0.692,-0.6905,-0.6901,-0.6888,-0.6881,-0.6874,-0.6877,-0.6872,-0.6881,-0.6879,-0.6886,-0.6886,-0.6913,-0.6916,-0.6885,-0.6885,-0.6886,0,-0.6989,-0.699,-0.6975,-0.6973,-0.6967,-0.6963,-0.696,-0.6945,-0.6942,-0.6932,-0.6933,-0.6927,-0.6922,-0.6916,-0.6905,-0.6899,-0.6894,-0.6904,-0.6893,-0.6897,-0.6894,-0.6895,-0.6895,-0.6906,-0.6907,-0.6907,-0.6907,0,-0.7013,-0.7007,-0.7002,-0.6995,-0.6991,-0.6985,-0.6978,-0.6977,-0.6961,-0.6958,-0.6953,-0.695,-0.6942,-0.6937,-0.693,-0.6923,-0.6913,-0.6911,-0.6912,-0.6916,-0.6921,-0.6918,-0.6887,-0.691,-0.691,-0.691,-0.6909,-0.6909,-0.7033,-0.7033,-0.7023,-0.7018,-0.7011,-0.7005,-0.7004,-0.6994,-0.699,-0.6983,-0.6975,-0.6971,-0.6962,-0.6951,-0.6945,-0.6943,-0.6937,-0.6939,-0.6939,-0.694,-0.6942,-0.6921,-0.6941,-0.6941,-0.6941,-0.6941,-0.6941,0,-0.7057,-0.7049,-0.7045,-0.7036,-0.7032,-0.7022,-0.7014,-0.7012,-0.7009,-0.7001,-0.6996,-0.6991,-0.6986,-0.6975,-0.6969,-0.6969,-0.6964,-0.6968,-0.6968,-0.6967,-0.6947,-0.6947,-0.6972,-0.6972,-0.6972,-0.6972,-0.6972,-0.6972,-0.7069,-0.7068,-0.7061,-0.7057,-0.7049,-0.7046,-0.7042,-0.7036,-0.703,-0.7025,-0.7021,-0.7013,-0.7004,-0.6998,-0.6993,-0.699,-0.6988,-0.6994,-0.6989,-0.6971,-0.6968,-0.6965,-0.6965,-0.6994,-0.6994,-0.7009,-0.7009,-0.7009]},{"header":{"parameterUnit":"m.s-1","parameterCategory":1,"la1":30.2991,"la2":30.254,"lo1":-89.0895,"lo2":-89.0444,"dy":0.0017,"dx":0.0017,"nx":28,"ny":28,"refTime":"2025-04-25T03:00:00:Z","depth":0,"parameterNumber":3,"parameterNumberName":"V-component_of_WINDS"},"data":[0,0,0,0,0,0,0,0,0,0,0,0,0,0,0,0,0,0,0,0,0,0,0,0,0,0,0,0,0,0,0,0,0,0,0,0,0,0,0,0,0,0,0,0,0,0,0,0,0,0,0,0,0,0,0,0,0,0,2.3712,2.3712,0,2.3707,2.3707,2.3707,2.3673,2.3672,2.3671,2.367,2.3665,2.3666,2.3667,0,0,0,0,0,0,0,0,0,0,0,0,0,2.3691,2.3692,2.3712,2.3712,2.3712,2.3707,2.3707,2.3707,2.3673,2.3672,2.3671,2.367,2.3665,2.3666,2.3667,0,0,0,0,0,0,0,0,0,0,0,0,0,2.3695,2.3692,2.3712,2.3694,2.3692,2.3707,2.3707,2.3707,2.3673,2.3672,2.3671,2.3669,2.3665,2.3666,2.3667,2.3698,0,0,2.367,2.367,0,0,0,0,0,0,0,0,2.3694,2.3695,2.3697,2.3695,2.3693,2.3689,2.3698,2.3704,2.3673,2.368,2.367,2.3669,2.3674,2.3674,2.3676,2.3698,2.3698,2.367,2.3671,2.3671,2.3671,0,0,0,0,0,0,0,2.3694,2.3695,2.371,2.3697,2.3695,2.3686,2.3685,2.3699,2.3684,2.368,2.3677,2.3677,2.3673,2.3676,2.3676,2.3698,2.367,2.3671,2.3671,2.3672,2.3745,2.3747,0,0,0,0,0,0,2.3696,2.3695,2.371,2.371,2.3691,2.3688,2.3687,2.3692,2.3684,2.3682,2.3678,2.3676,2.3674,2.3675,2.3676,2.3712,2.3671,2.3672,2.3672,2.3744,2.3746,2.3747,0,0,0,0,0,0,2.3696,2.3698,2.371,2.3702,2.3703,2.3689,2.3695,2.3692,2.3695,2.3683,2.368,2.3683,2.3673,2.3674,2.3693,2.3712,2.3672,2.3673,2.3742,2.3745,2.3746,2.3785,0,0,0,0,0,0,2.3696,2.3698,2.371,2.3702,2.3703,2.3728,2.3697,2.3693,2.3696,2.3693,2.3687,2.3685,2.3673,2.3692,2.3694,2.3712,2.3674,2.3741,2.3743,2.3746,2.3782,2.3789,2.3794,0,0,0,0,0,2.3695,2.3721,2.3711,2.3712,2.3718,2.3729,2.3729,2.3714,2.3698,2.371,2.3702,2.3685,2.3709,2.3694,2.3696,2.3715,2.3739,2.3743,2.3746,2.378,2.3787,2.3794,0,0,0,0,0,0,2.373,2.3719,2.3708,2.3732,2.3732,2.3723,2.3737,2.3723,2.3727,2.3723,2.3705,2.3704,2.3726,2.3722,2.3705,2.3745,2.3721,2.3725,2.3747,2.3754,2.3759,2.376,2.3675,0,0,0,0,0,2.3741,2.3751,2.3741,2.3763,2.3763,2.3751,2.3755,2.3743,2.3742,2.3742,2.3736,2.3735,2.3743,2.3748,2.3754,2.3782,2.378,2.3796,2.3802,2.3806,2.381,2.3825,2.3832,2.3757,2.3757,2.3757,0,0,2.3763,2.3758,2.3766,2.377,2.3768,2.3779,2.375,2.3763,2.3771,2.3744,2.3761,2.3757,2.3755,2.3778,2.3788,2.3776,2.383,2.381,2.3814,2.3815,2.3829,2.3836,2.3842,2.3759,2.3759,2.3759,0,0,2.3809,2.3806,2.3825,2.3824,2.3822,2.3813,2.3817,2.3811,2.3807,2.3824,2.3804,2.3814,2.3827,2.3826,2.3828,2.3874,2.3859,2.3877,2.3907,2.3921,2.3927,2.3932,2.3949,2.3956,2.388,2.388,2.3881,0,2.3836,2.3852,2.3836,2.385,2.3853,2.3829,2.3848,2.3847,2.3848,2.385,2.3836,2.3853,2.385,2.3873,2.3885,2.3887,2.3891,2.3877,2.3928,2.3933,2.3937,2.3953,2.396,2.3883,2.3882,2.3882,2.3882,0,2.3886,2.3897,2.3912,2.3913,2.3918,2.3934,2.3921,2.3927,2.3916,2.3909,2.3927,2.3923,2.3928,2.3933,2.3921,2.3955,2.3947,2.3931,2.3907,2.3947,2.3962,2.3968,2.3886,2.3885,2.3884,2.3884,0,0,2.3953,2.3946,2.3952,2.3952,2.3949,2.3957,2.3973,2.3978,2.3984,2.3985,2.3998,2.401,2.3995,2.3997,2.3985,2.3998,2.4036,2.398,2.398,2.3991,2.4073,2.4085,2.4093,2.4026,2.4027,2.4028,2.4073,0,2.3998,2.4024,2.401,2.4038,2.4049,2.4026,2.404,2.4039,2.4033,2.4041,2.4034,2.4043,2.4023,2.4024,2.4036,2.4029,2.4052,2.4025,2.4038,2.4038,2.4039,2.41,2.4113,2.4157,2.4079,2.408,2.408,0,2.4053,2.4056,2.4086,2.4081,2.4084,2.4097,2.4101,2.4109,2.4108,2.4102,2.4105,2.4091,2.4106,2.4082,2.4103,2.4085,2.4089,2.4086,2.4088,2.4088,2.4062,2.4103,2.417,2.4177,2.4089,2.4089,2.4088,0,2.4099,2.4112,2.4131,2.4132,2.4127,2.4136,2.4134,2.4132,2.4136,2.414,2.4142,2.4148,2.4151,2.4155,2.4143,2.4127,2.4166,2.414,2.4162,2.4162,2.4171,2.4171,2.424,2.4173,2.4173,2.4173,2.4173,0,2.415,2.4169,2.4152,2.4164,2.4185,2.4169,2.419,2.4185,2.4184,2.4195,2.4176,2.4186,2.4169,2.4178,2.4168,2.4187,2.4189,2.4185,2.4182,2.4187,2.4187,2.4189,2.4186,2.4175,2.4175,2.4174,2.4174,0,2.4206,2.4195,2.4215,2.4209,2.4207,2.4223,2.4217,2.4228,2.4221,2.4235,2.4237,2.4226,2.4235,2.4224,2.4232,2.4226,2.4252,2.4244,2.4252,2.425,2.4272,2.4271,2.4346,2.4355,2.4282,2.4283,2.4283,0,2.4239,2.4254,2.4249,2.4255,2.4254,2.4264,2.4268,2.4254,2.4259,2.4259,2.427,2.4278,2.4284,2.43,2.4293,2.4299,2.4292,2.4318,2.4293,2.4297,2.4293,2.4293,2.4294,2.4323,2.4324,2.4325,2.4325,0,2.43,2.4294,2.4301,2.4307,2.4313,2.4317,2.4319,2.4325,2.431,2.4317,2.4326,2.4331,2.434,2.4348,2.4353,2.4351,2.4336,2.4333,2.4339,2.4344,2.4348,2.4346,2.4266,2.4332,2.4331,2.4331,2.433,2.433,2.4346,2.4357,2.4356,2.4365,2.4365,2.4368,2.4378,2.4372,2.438,2.4386,2.4377,2.439,2.4389,2.4393,2.4393,2.4403,2.4392,2.4399,2.4401,2.4404,2.4407,2.4346,2.4403,2.4403,2.4403,2.4403,2.4403,0,2.4406,2.4404,2.4412,2.4416,2.4423,2.4409,2.4411,2.4418,2.4429,2.4429,2.4435,2.4447,2.4455,2.4449,2.4455,2.4464,2.4458,2.4467,2.4466,2.4466,2.4416,2.4411,2.4472,2.4472,2.4472,2.4472,2.4472,2.4472,2.4438,2.4457,2.4451,2.4471,2.4468,2.4481,2.4483,2.4486,2.4486,2.45,2.4507,2.4502,2.45,2.4507,2.4514,2.4512,2.4515,2.4527,2.4522,2.4476,2.4469,2.4463,2.4458,2.4528,2.4528,2.4571,2.4571,2.4572]}]]